Time,TemperatureF,DewpointF,PressureIn,WindDirection,WindDirectionDegrees,WindSpeedMPH,WindSpeedGustMPH,Humidity,HourlyPrecipIn,Conditions,Clouds,dailyrainin,SoftwareType,DateUTC
2013-09-19 00:01:00,64.3,61.3,30.15,East,82,0.0,1.0,90,0.00,,SKC,0.00,VWS V14.01,2013-09-19 04:01:00,
2013-09-19 00:06:00,64.3,61.3,30.15,East,82,0.0,0.0,90,0.00,,SKC,0.00,VWS V14.01,2013-09-19 04:06:00,
2013-09-19 00:08:00,64.2,61.2,30.15,East,82,0.0,0.0,90,0.00,,SKC,0.00,VWS V14.01,2013-09-19 04:08:00,
2013-09-19 00:13:00,64.2,61.5,30.15,East,80,0.0,0.0,91,0.00,,SKC,0.00,VWS V14.01,2013-09-19 04:13:00,
2013-09-19 00:18:00,64.1,61.4,30.15,East,85,0.0,1.0,91,0.00,,SKC,0.00,VWS V14.01,2013-09-19 04:18:00,
2013-09-19 00:23:00,63.9,61.2,30.15,East,85,0.0,1.0,91,0.00,,SKC,0.00,VWS V14.01,2013-09-19 04:23:00,
2013-09-19 00:28:00,63.9,61.2,30.15,East,85,0.0,1.0,91,0.00,,SKC,0.00,VWS V14.01,2013-09-19 04:28:00,
2013-09-19 00:33:00,63.9,60.9,30.15,East,79,0.0,1.0,90,0.00,,SKC,0.00,VWS V14.01,2013-09-19 04:33:00,
2013-09-19 00:38:00,64.0,61.0,30.15,ENE,78,0.0,0.0,90,0.00,,SKC,0.00,VWS V14.01,2013-09-19 04:38:00,
2013-09-19 00:43:00,64.0,61.3,30.15,East,79,0.0,0.0,91,0.00,,SKC,0.00,VWS V14.01,2013-09-19 04:43:00,
2013-09-19 00:48:00,63.9,61.2,30.15,East,79,0.0,0.0,91,0.00,,SKC,0.00,VWS V14.01,2013-09-19 04:48:00,
2013-09-19 00:53:00,63.7,61.0,30.15,ENE,78,0.0,0.0,91,0.00,,SKC,0.00,VWS V14.01,2013-09-19 04:53:00,
2013-09-19 00:58:00,63.5,61.1,30.15,East,79,0.0,0.0,92,0.00,,SKC,0.00,VWS V14.01,2013-09-19 04:58:00,
2013-09-19 01:03:00,63.3,60.9,30.15,East,79,0.0,0.0,92,0.00,,SKC,0.00,VWS V14.01,2013-09-19 05:03:00,
2013-09-19 01:08:00,63.1,60.7,30.15,East,79,0.0,0.0,92,0.00,,SKC,0.00,VWS V14.01,2013-09-19 05:08:00,
2013-09-19 01:13:00,62.9,60.8,30.15,East,79,0.0,0.0,93,0.00,,SKC,0.00,VWS V14.01,2013-09-19 05:13:00,
2013-09-19 01:18:00,62.7,60.7,30.15,East,79,0.0,0.0,93,0.00,,SKC,0.00,VWS V14.01,2013-09-19 05:18:00,
2013-09-19 01:23:00,62.6,60.5,30.15,East,79,0.0,0.0,93,0.00,,SKC,0.00,VWS V14.01,2013-09-19 05:23:00,
2013-09-19 01:28:00,62.5,60.8,30.15,East,79,0.0,0.0,94,0.00,,SKC,0.00,VWS V14.01,2013-09-19 05:28:00,
2013-09-19 01:33:00,62.1,60.4,30.14,ENE,71,0.0,0.0,94,0.00,,SKC,0.00,VWS V14.01,2013-09-19 05:33:00,
2013-09-19 01:38:00,61.7,60.0,30.15,ENE,70,0.0,0.0,94,0.00,,SKC,0.00,VWS V14.01,2013-09-19 05:38:00,
2013-09-19 01:43:00,61.7,60.0,30.15,ENE,70,0.0,0.0,94,0.00,,SKC,0.00,VWS V14.01,2013-09-19 05:43:00,
2013-09-19 01:48:00,61.7,60.0,30.14,ENE,70,0.0,0.0,94,0.00,,SKC,0.00,VWS V14.01,2013-09-19 05:48:00,
2013-09-19 01:53:00,61.7,60.0,30.14,ENE,70,0.0,0.0,94,0.00,,SKC,0.00,VWS V14.01,2013-09-19 05:53:00,
2013-09-19 01:58:00,61.7,60.0,30.14,ENE,70,0.0,0.0,94,0.00,,SKC,0.00,VWS V14.01,2013-09-19 05:58:00,
2013-09-19 02:03:00,61.7,60.0,30.14,ENE,70,0.0,0.0,94,0.00,,SKC,0.00,VWS V14.01,2013-09-19 06:03:00,
2013-09-19 02:08:00,61.7,60.0,30.14,ENE,70,0.0,0.0,94,0.00,,SKC,0.00,VWS V14.01,2013-09-19 06:08:00,
2013-09-19 02:13:00,61.7,60.0,30.14,ENE,70,0.0,0.0,94,0.00,,SKC,0.00,VWS V14.01,2013-09-19 06:13:00,
2013-09-19 02:18:00,61.7,60.0,30.14,ENE,70,0.0,0.0,94,0.00,,SKC,0.00,VWS V14.01,2013-09-19 06:18:00,
2013-09-19 02:23:00,61.7,60.0,30.14,ENE,70,0.0,0.0,94,0.00,,SKC,0.00,VWS V14.01,2013-09-19 06:23:00,
2013-09-19 02:28:00,61.7,60.0,30.14,ENE,70,0.0,0.0,94,0.00,,SKC,0.00,VWS V14.01,2013-09-19 06:28:00,
2013-09-19 02:33:00,61.7,60.0,30.14,ENE,70,0.0,0.0,94,0.00,,SKC,0.00,VWS V14.01,2013-09-19 06:33:00,
2013-09-19 02:38:00,61.7,60.0,30.14,ENE,70,0.0,0.0,94,0.00,,SKC,0.00,VWS V14.01,2013-09-19 06:38:00,
2013-09-19 02:43:00,61.7,60.0,30.14,ENE,70,0.0,0.0,94,0.00,,SKC,0.00,VWS V14.01,2013-09-19 06:43:00,
2013-09-19 02:48:00,61.7,60.0,30.14,ENE,70,0.0,0.0,94,0.00,,SKC,0.00,VWS V14.01,2013-09-19 06:48:00,
2013-09-19 02:53:00,61.7,60.0,30.14,ENE,70,0.0,0.0,94,0.00,,SKC,0.00,VWS V14.01,2013-09-19 06:53:00,
2013-09-19 02:58:00,61.7,60.0,30.13,ENE,70,0.0,0.0,94,0.00,,SKC,0.00,VWS V14.01,2013-09-19 06:58:00,
2013-09-19 03:03:00,61.7,60.0,30.14,ENE,70,0.0,0.0,94,0.00,,SKC,0.00,VWS V14.01,2013-09-19 07:03:00,
2013-09-19 03:08:00,61.7,60.0,30.13,ENE,70,0.0,0.0,94,0.00,,SKC,0.00,VWS V14.01,2013-09-19 07:08:00,
2013-09-19 03:13:00,61.7,60.0,30.14,ENE,70,0.0,0.0,94,0.00,,SKC,0.00,VWS V14.01,2013-09-19 07:13:00,
2013-09-19 03:18:00,61.7,60.0,30.14,ENE,70,0.0,0.0,94,0.00,,SKC,0.00,VWS V14.01,2013-09-19 07:18:00,
2013-09-19 03:23:00,61.7,60.0,30.14,ENE,70,0.0,0.0,94,0.00,,SKC,0.00,VWS V14.01,2013-09-19 07:23:00,
2013-09-19 03:28:00,61.7,60.0,30.14,ENE,70,0.0,0.0,94,0.00,,SKC,0.00,VWS V14.01,2013-09-19 07:28:00,
2013-09-19 03:33:00,61.7,60.0,30.13,ENE,70,0.0,0.0,94,0.00,,SKC,0.00,VWS V14.01,2013-09-19 07:33:00,
2013-09-19 03:38:00,61.7,60.0,30.13,ENE,70,0.0,0.0,94,0.00,,SKC,0.00,VWS V14.01,2013-09-19 07:38:00,
2013-09-19 03:43:00,61.7,60.0,30.13,ENE,70,0.0,0.0,94,0.00,,SKC,0.00,VWS V14.01,2013-09-19 07:43:00,
2013-09-19 03:48:00,61.7,60.0,30.13,ENE,70,0.0,0.0,94,0.00,,SKC,0.00,VWS V14.01,2013-09-19 07:48:00,
2013-09-19 03:53:00,61.7,60.0,30.13,ENE,70,0.0,0.0,94,0.00,,SKC,0.00,VWS V14.01,2013-09-19 07:53:00,
2013-09-19 03:58:00,61.7,60.0,30.13,ENE,70,0.0,0.0,94,0.00,,SKC,0.00,VWS V14.01,2013-09-19 07:58:00,
2013-09-19 04:03:00,61.7,60.0,30.13,ENE,70,0.0,0.0,94,0.00,,SKC,0.00,VWS V14.01,2013-09-19 08:03:00,
2013-09-19 04:08:00,61.7,60.0,30.13,ENE,70,0.0,0.0,94,0.00,,SKC,0.00,VWS V14.01,2013-09-19 08:08:00,
2013-09-19 04:13:00,61.7,60.0,30.13,ENE,70,0.0,0.0,94,0.00,,SKC,0.00,VWS V14.01,2013-09-19 08:13:00,
2013-09-19 04:18:00,61.7,60.0,30.13,ENE,70,0.0,0.0,94,0.00,,SKC,0.00,VWS V14.01,2013-09-19 08:18:00,
2013-09-19 04:23:00,61.7,60.0,30.13,ENE,70,0.0,0.0,94,0.00,,SKC,0.00,VWS V14.01,2013-09-19 08:23:00,
2013-09-19 04:28:00,61.7,60.0,30.13,ENE,70,0.0,0.0,94,0.00,,SKC,0.00,VWS V14.01,2013-09-19 08:28:00,
2013-09-19 04:33:00,61.7,60.0,30.13,ENE,70,0.0,0.0,94,0.00,,SKC,0.00,VWS V14.01,2013-09-19 08:33:00,
2013-09-19 04:38:00,61.7,60.0,30.13,ENE,70,0.0,0.0,94,0.00,,SKC,0.00,VWS V14.01,2013-09-19 08:38:00,
2013-09-19 04:43:00,61.7,60.0,30.13,ENE,70,0.0,0.0,94,0.00,,SKC,0.00,VWS V14.01,2013-09-19 08:43:00,
2013-09-19 04:48:00,61.7,60.0,30.13,ENE,70,0.0,0.0,94,0.00,,SKC,0.00,VWS V14.01,2013-09-19 08:48:00,
2013-09-19 04:53:00,61.7,60.0,30.13,ENE,70,0.0,0.0,94,0.00,,SKC,0.00,VWS V14.01,2013-09-19 08:53:00,
2013-09-19 04:58:00,61.7,60.0,30.13,ENE,70,0.0,0.0,94,0.00,,SKC,0.00,VWS V14.01,2013-09-19 08:58:00,
2013-09-19 05:03:00,61.7,60.0,30.13,ENE,70,0.0,0.0,94,0.00,,SKC,0.00,VWS V14.01,2013-09-19 09:03:00,
2013-09-19 05:08:00,61.7,60.0,30.13,ENE,70,0.0,0.0,94,0.00,,SKC,0.00,VWS V14.01,2013-09-19 09:08:00,
2013-09-19 05:13:00,61.7,60.0,30.13,ENE,70,0.0,0.0,94,0.00,,SKC,0.00,VWS V14.01,2013-09-19 09:13:00,
2013-09-19 05:18:00,61.7,60.0,30.13,ENE,70,0.0,0.0,94,0.00,,SKC,0.00,VWS V14.01,2013-09-19 09:18:00,
2013-09-19 05:23:00,61.7,60.0,30.12,ENE,70,0.0,0.0,94,0.00,,SKC,0.00,VWS V14.01,2013-09-19 09:23:00,
2013-09-19 05:28:00,61.7,60.0,30.12,ENE,70,0.0,0.0,94,0.00,,SKC,0.00,VWS V14.01,2013-09-19 09:28:00,
2013-09-19 05:33:00,61.7,60.0,30.12,ENE,70,0.0,0.0,94,0.00,,SKC,0.00,VWS V14.01,2013-09-19 09:33:00,
2013-09-19 05:38:00,61.7,60.0,30.13,ENE,70,0.0,0.0,94,0.00,,SKC,0.00,VWS V14.01,2013-09-19 09:38:00,
2013-09-19 05:43:00,61.7,60.0,30.13,ENE,70,0.0,0.0,94,0.00,,SKC,0.00,VWS V14.01,2013-09-19 09:43:00,
2013-09-19 05:48:00,61.7,60.0,30.13,ENE,70,0.0,0.0,94,0.00,,SKC,0.00,VWS V14.01,2013-09-19 09:48:00,
2013-09-19 05:53:00,61.7,60.0,30.13,ENE,70,0.0,0.0,94,0.00,,SKC,0.00,VWS V14.01,2013-09-19 09:53:00,
2013-09-19 05:58:00,61.7,60.0,30.13,ENE,70,0.0,0.0,94,0.00,,SKC,0.00,VWS V14.01,2013-09-19 09:58:00,
2013-09-19 06:03:00,61.7,60.0,30.13,ENE,70,0.0,0.0,94,0.00,,SKC,0.00,VWS V14.01,2013-09-19 10:03:00,
2013-09-19 06:08:00,61.7,60.0,30.13,ENE,70,0.0,0.0,94,0.00,,SKC,0.00,VWS V14.01,2013-09-19 10:08:00,
2013-09-19 06:13:00,61.7,60.0,30.13,ENE,70,0.0,0.0,94,0.00,,SKC,0.00,VWS V14.01,2013-09-19 10:13:00,
2013-09-19 06:18:00,61.7,60.0,30.13,ENE,70,0.0,0.0,94,0.00,,SKC,0.00,VWS V14.01,2013-09-19 10:18:00,
2013-09-19 06:23:00,61.7,60.0,30.13,ENE,70,0.0,0.0,94,0.00,,SKC,0.00,VWS V14.01,2013-09-19 10:23:00,
2013-09-19 06:28:00,61.7,60.0,30.13,ENE,70,0.0,0.0,94,0.00,,SKC,0.00,VWS V14.01,2013-09-19 10:28:00,
2013-09-19 06:33:00,61.7,60.0,30.13,ENE,70,0.0,0.0,94,0.00,,SKC,0.00,VWS V14.01,2013-09-19 10:33:00,
2013-09-19 06:38:00,61.7,60.0,30.13,ENE,70,0.0,0.0,94,0.00,,SKC,0.00,VWS V14.01,2013-09-19 10:38:00,
2013-09-19 06:43:00,61.7,60.0,30.13,ENE,70,0.0,0.0,94,0.00,,SKC,0.00,VWS V14.01,2013-09-19 10:43:00,
2013-09-19 06:48:00,61.7,60.0,30.14,ENE,70,0.0,0.0,94,0.00,,SKC,0.00,VWS V14.01,2013-09-19 10:48:00,
2013-09-19 06:53:00,61.7,60.0,30.14,ENE,70,0.0,0.0,94,0.00,,SKC,0.00,VWS V14.01,2013-09-19 10:53:00,
2013-09-19 06:58:00,61.7,60.0,30.14,ENE,70,0.0,0.0,94,0.00,,SKC,0.00,VWS V14.01,2013-09-19 10:58:00,
2013-09-19 07:03:00,61.7,60.0,30.14,ENE,70,0.0,0.0,94,0.00,,SKC,0.00,VWS V14.01,2013-09-19 11:03:00,
2013-09-19 07:08:00,61.7,60.0,30.14,ENE,70,0.0,0.0,94,0.00,,SKC,0.00,VWS V14.01,2013-09-19 11:08:00,
2013-09-19 07:13:00,61.7,60.0,30.14,ENE,70,0.0,0.0,94,0.00,,SKC,0.00,VWS V14.01,2013-09-19 11:13:00,
2013-09-19 07:18:00,61.7,60.0,30.14,ENE,70,0.0,0.0,94,0.00,,SKC,0.00,VWS V14.01,2013-09-19 11:18:00,
2013-09-19 07:23:00,61.7,60.0,30.14,ENE,70,0.0,0.0,94,0.00,,SKC,0.00,VWS V14.01,2013-09-19 11:23:00,
2013-09-19 07:28:00,61.7,60.0,30.14,ENE,70,0.0,0.0,94,0.00,,SKC,0.00,VWS V14.01,2013-09-19 11:28:00,
2013-09-19 07:33:00,61.7,60.0,30.15,ENE,70,0.0,0.0,94,0.00,,SKC,0.00,VWS V14.01,2013-09-19 11:33:00,
2013-09-19 07:38:00,61.7,60.0,30.15,ENE,70,0.0,0.0,94,0.00,,SKC,0.00,VWS V14.01,2013-09-19 11:38:00,
2013-09-19 07:43:00,61.7,60.0,30.15,ENE,70,0.0,0.0,94,0.00,,SKC,0.00,VWS V14.01,2013-09-19 11:43:00,
2013-09-19 07:48:00,61.7,60.0,30.15,ENE,70,0.0,0.0,94,0.00,,SKC,0.00,VWS V14.01,2013-09-19 11:48:00,
2013-09-19 07:53:00,61.7,60.0,30.15,ENE,70,0.0,0.0,94,0.00,,SKC,0.00,VWS V14.01,2013-09-19 11:53:00,
2013-09-19 07:58:00,61.7,60.0,30.15,ENE,70,0.0,0.0,94,0.00,,SKC,0.00,VWS V14.01,2013-09-19 11:58:00,
2013-09-19 08:03:00,61.7,60.0,30.15,ENE,70,0.0,0.0,94,0.00,,SKC,0.00,VWS V14.01,2013-09-19 12:03:00,
2013-09-19 08:08:00,61.7,60.0,30.15,ENE,70,0.0,0.0,94,0.00,,SKC,0.00,VWS V14.01,2013-09-19 12:08:00,
2013-09-19 08:13:00,61.7,60.0,30.16,ENE,70,0.0,0.0,94,0.00,,SKC,0.00,VWS V14.01,2013-09-19 12:13:00,
2013-09-19 08:18:00,60.6,60.0,30.16,ENE,70,0.0,0.0,98,0.00,,SKC,0.00,VWS V14.01,2013-09-19 12:18:00,
2013-09-19 08:23:00,61.8,61.2,30.15,ENE,69,0.0,0.0,98,0.00,,SKC,0.00,VWS V14.01,2013-09-19 12:23:00,
2013-09-19 08:28:00,61.9,61.3,30.15,ENE,69,0.0,0.0,98,0.00,,SKC,0.00,VWS V14.01,2013-09-19 12:28:00,
2013-09-19 08:33:00,62.2,61.3,30.16,ENE,69,0.0,0.0,97,0.00,,SKC,0.00,VWS V14.01,2013-09-19 12:33:00,
2013-09-19 08:38:00,63.4,62.8,30.16,ENE,69,0.0,0.0,98,0.00,,SKC,0.00,VWS V14.01,2013-09-19 12:38:00,
2013-09-19 08:43:00,64.2,63.6,30.16,ENE,69,0.0,0.0,98,0.00,,SKC,0.00,VWS V14.01,2013-09-19 12:43:00,
2013-09-19 08:48:00,63.9,63.0,30.16,East,99,0.0,1.0,97,0.00,,SKC,0.00,VWS V14.01,2013-09-19 12:48:00,
2013-09-19 08:53:00,64.2,63.0,30.16,East,97,0.0,0.0,96,0.00,,SKC,0.00,VWS V14.01,2013-09-19 12:53:00,
2013-09-19 08:58:00,64.8,62.7,30.16,East,86,0.0,0.0,93,0.00,,SKC,0.00,VWS V14.01,2013-09-19 12:58:00,
2013-09-19 09:03:00,65.5,62.8,30.17,East,95,0.0,1.0,91,0.00,,SKC,0.00,VWS V14.01,2013-09-19 13:03:00,
2013-09-19 09:08:00,65.8,62.2,30.17,East,85,0.0,2.0,88,0.00,,SKC,0.00,VWS V14.01,2013-09-19 13:08:00,
2013-09-19 09:13:00,66.2,62.5,30.17,ESE,111,0.0,1.0,88,0.00,,SKC,0.00,VWS V14.01,2013-09-19 13:13:00,
2013-09-19 09:18:00,66.6,62.6,30.17,East,95,0.0,1.0,87,0.00,,SKC,0.00,VWS V14.01,2013-09-19 13:18:00,
2013-09-19 09:23:00,66.8,63.1,30.17,East,95,0.0,0.0,88,0.00,,SKC,0.00,VWS V14.01,2013-09-19 13:23:00,
2013-09-19 09:28:00,67.0,62.7,30.17,East,95,0.0,1.0,86,0.00,,SKC,0.00,VWS V14.01,2013-09-19 13:28:00,
2013-09-19 09:33:00,67.0,62.3,30.17,North,3,0.0,1.0,85,0.00,,SKC,0.00,VWS V14.01,2013-09-19 13:33:00,
2013-09-19 09:38:00,67.0,61.7,30.17,East,84,1.0,1.0,83,0.00,,SKC,0.00,VWS V14.01,2013-09-19 13:38:00,
2013-09-19 09:43:00,67.3,62.3,30.17,East,85,0.0,0.0,84,0.00,,SKC,0.00,VWS V14.01,2013-09-19 13:43:00,
2013-09-19 09:48:00,67.9,62.5,30.17,East,85,0.0,1.0,83,0.00,,SKC,0.00,VWS V14.01,2013-09-19 13:48:00,
2013-09-19 09:53:00,68.3,62.6,30.17,East,84,0.0,0.0,82,0.00,,SKC,0.00,VWS V14.01,2013-09-19 13:53:00,
2013-09-19 09:58:00,68.9,63.2,30.17,SW,229,0.0,0.0,82,0.00,,SKC,0.00,VWS V14.01,2013-09-19 13:58:00,
2013-09-19 10:03:00,69.6,63.5,30.17,SW,226,0.0,0.0,81,0.00,,SKC,0.00,VWS V14.01,2013-09-19 14:03:00,
2013-09-19 10:08:00,70.1,62.9,30.17,NE,40,0.0,1.0,78,0.00,,SKC,0.00,VWS V14.01,2013-09-19 14:08:00,
2013-09-19 10:13:00,70.3,62.8,30.17,SW,218,0.0,0.0,77,0.00,,SKC,0.00,VWS V14.01,2013-09-19 14:13:00,
2013-09-19 10:18:00,70.4,62.8,30.17,SSW,198,0.0,2.0,77,0.00,,SKC,0.00,VWS V14.01,2013-09-19 14:18:00,
2013-09-19 10:23:00,70.3,62.8,30.17,NE,51,0.0,2.0,77,0.00,,SKC,0.00,VWS V14.01,2013-09-19 14:23:00,
2013-09-19 10:28:00,70.7,62.4,30.17,SW,221,0.0,2.0,75,0.00,,SKC,0.00,VWS V14.01,2013-09-19 14:28:00,
2013-09-19 10:33:00,71.2,62.5,30.17,SW,215,0.0,1.0,74,0.00,,SKC,0.00,VWS V14.01,2013-09-19 14:33:00,
2013-09-19 10:38:00,71.9,62.4,30.17,ESE,107,0.0,2.0,72,0.00,,SKC,0.00,VWS V14.01,2013-09-19 14:38:00,
2013-09-19 10:43:00,72.2,63.1,30.17,ESE,107,0.0,0.0,73,0.00,,SKC,0.00,VWS V14.01,2013-09-19 14:43:00,
2013-09-19 10:48:00,72.9,63.8,30.17,SSE,156,0.0,0.0,73,0.00,,SKC,0.00,VWS V14.01,2013-09-19 14:48:00,
2013-09-19 10:53:00,73.7,62.5,30.17,SW,214,0.0,2.0,68,0.00,,SKC,0.00,VWS V14.01,2013-09-19 14:53:00,
2013-09-19 10:58:00,74.1,63.3,30.17,West,262,0.0,0.0,69,0.00,,SKC,0.00,VWS V14.01,2013-09-19 14:58:00,
2013-09-19 11:03:00,74.2,61.7,30.17,NW,307,0.0,1.0,65,0.00,,SKC,0.00,VWS V14.01,2013-09-19 15:03:00,
2013-09-19 11:08:00,74.0,61.9,30.17,SW,236,1.0,2.0,66,0.00,,SKC,0.00,VWS V14.01,2013-09-19 15:08:00,
2013-09-19 11:13:00,73.8,62.6,30.17,SW,226,1.0,1.0,68,0.00,,SKC,0.00,VWS V14.01,2013-09-19 15:13:00,
2013-09-19 11:18:00,74.1,62.5,30.17,ENE,62,1.0,1.0,67,0.00,,SKC,0.00,VWS V14.01,2013-09-19 15:18:00,
2013-09-19 11:23:00,74.6,62.9,30.17,ENE,64,1.0,2.0,67,0.00,,SKC,0.00,VWS V14.01,2013-09-19 15:23:00,
2013-09-19 11:28:00,74.8,64.0,30.17,ENE,70,0.0,0.0,69,0.00,,SKC,0.00,VWS V14.01,2013-09-19 15:28:00,
2013-09-19 11:33:00,75.6,63.5,30.17,SW,225,0.0,1.0,66,0.00,,SKC,0.00,VWS V14.01,2013-09-19 15:33:00,
2013-09-19 11:38:00,76.1,64.4,30.17,SW,235,0.0,1.0,67,0.00,,SKC,0.00,VWS V14.01,2013-09-19 15:38:00,
2013-09-19 11:43:00,76.5,63.0,30.17,ENE,71,0.0,2.0,63,0.00,,SKC,0.00,VWS V14.01,2013-09-19 15:43:00,
2013-09-19 11:48:00,76.7,63.2,30.17,SW,226,2.0,3.0,63,0.00,,SKC,0.00,VWS V14.01,2013-09-19 15:48:00,
2013-09-19 11:53:00,76.5,63.0,30.17,SSW,212,1.0,3.0,63,0.00,,SKC,0.00,VWS V14.01,2013-09-19 15:53:00,
2013-09-19 11:58:00,76.6,63.5,30.16,SW,231,0.0,2.0,64,0.00,,SKC,0.00,VWS V14.01,2013-09-19 15:58:00,
2013-09-19 12:03:00,76.9,63.4,30.16,NNE,33,1.0,5.0,63,0.00,,SKC,0.00,VWS V14.01,2013-09-19 16:03:00,
2013-09-19 12:08:00,77.2,65.4,30.16,North,356,0.0,0.0,67,0.00,,SKC,0.00,VWS V14.01,2013-09-19 16:08:00,
2013-09-19 12:13:00,77.7,63.2,30.16,ENE,61,2.0,4.0,61,0.00,,SKC,0.00,VWS V14.01,2013-09-19 16:13:00,
2013-09-19 12:18:00,76.7,63.2,30.16,NE,55,1.0,2.0,63,0.00,,SKC,0.00,VWS V14.01,2013-09-19 16:18:00,
2013-09-19 12:23:00,77.3,63.3,30.16,NE,45,1.0,2.0,62,0.00,,SKC,0.00,VWS V14.01,2013-09-19 16:23:00,
2013-09-19 12:28:00,78.0,63.9,30.16,NE,56,1.0,2.0,62,0.00,,SKC,0.00,VWS V14.01,2013-09-19 16:28:00,
2013-09-19 12:33:00,78.4,64.8,30.16,ESE,122,0.0,1.0,63,0.00,,SKC,0.00,VWS V14.01,2013-09-19 16:33:00,
2013-09-19 12:38:00,79.1,65.4,30.16,SE,136,0.0,1.0,63,0.00,,SKC,0.00,VWS V14.01,2013-09-19 16:38:00,
2013-09-19 12:43:00,78.9,63.8,30.15,NE,41,2.0,3.0,60,0.00,,SKC,0.00,VWS V14.01,2013-09-19 16:43:00,
2013-09-19 12:48:00,79.2,64.1,30.15,South,173,0.0,1.0,60,0.00,,SKC,0.00,VWS V14.01,2013-09-19 16:48:00,
2013-09-19 12:53:00,79.9,64.8,30.15,WSW,246,1.0,2.0,60,0.00,,SKC,0.00,VWS V14.01,2013-09-19 16:53:00,
2013-09-19 12:58:00,80.7,65.5,30.15,South,169,0.0,1.0,60,0.00,,SKC,0.00,VWS V14.01,2013-09-19 16:58:00,
2013-09-19 13:03:00,81.8,64.6,30.14,SSE,167,0.0,0.0,56,0.00,,SKC,0.00,VWS V14.01,2013-09-19 17:03:00,
2013-09-19 13:08:00,82.2,63.9,30.14,WSW,238,1.0,1.0,54,0.00,,SKC,0.00,VWS V14.01,2013-09-19 17:08:00,
2013-09-19 13:13:00,81.6,63.9,30.14,SSW,193,1.0,2.0,55,0.00,,SKC,0.00,VWS V14.01,2013-09-19 17:13:00,
2013-09-19 13:18:00,81.4,63.7,30.14,SSW,195,0.0,2.0,55,0.00,,SKC,0.00,VWS V14.01,2013-09-19 17:18:00,
2013-09-19 13:23:00,80.7,63.6,30.13,NNE,33,0.0,3.0,56,0.00,,SKC,0.00,VWS V14.01,2013-09-19 17:23:00,
2013-09-19 13:28:00,80.8,65.2,30.13,WSW,257,0.0,1.0,59,0.00,,SKC,0.00,VWS V14.01,2013-09-19 17:28:00,
2013-09-19 13:33:00,81.3,64.6,30.13,SSW,194,2.0,3.0,57,0.00,,SKC,0.00,VWS V14.01,2013-09-19 17:33:00,
2013-09-19 13:38:00,81.5,65.3,30.12,WSW,246,3.0,3.0,58,0.00,,SKC,0.00,VWS V14.01,2013-09-19 17:38:00,
2013-09-19 13:43:00,81.9,65.2,30.12,SSW,210,1.0,1.0,57,0.00,,SKC,0.00,VWS V14.01,2013-09-19 17:43:00,
2013-09-19 13:48:00,82.7,64.9,30.12,SW,236,2.0,2.0,55,0.00,,SKC,0.00,VWS V14.01,2013-09-19 17:48:00,
2013-09-19 13:53:00,82.7,64.4,30.12,SSW,197,1.0,2.0,54,0.00,,SKC,0.00,VWS V14.01,2013-09-19 17:53:00,
2013-09-19 13:58:00,82.9,65.1,30.12,SSW,195,0.0,0.0,55,0.00,,SKC,0.00,VWS V14.01,2013-09-19 17:58:00,
2013-09-19 14:03:00,83.6,65.2,30.11,SSE,158,0.0,1.0,54,0.00,,FEW040,0.00,VWS V14.01,2013-09-19 18:03:00,
2013-09-19 14:08:00,83.9,66.0,30.11,South,179,0.0,0.0,55,0.00,,FEW040,0.00,VWS V14.01,2013-09-19 18:08:00,
2013-09-19 14:13:00,84.2,64.7,30.11,SSE,158,3.0,4.0,52,0.00,,FEW040,0.00,VWS V14.01,2013-09-19 18:13:00,
2013-09-19 14:18:00,83.8,63.8,30.11,WSW,238,0.0,3.0,51,0.00,,FEW040,0.00,VWS V14.01,2013-09-19 18:18:00,
2013-09-19 14:23:00,83.8,64.9,30.11,West,269,0.0,2.0,53,0.00,,FEW040,0.00,VWS V14.01,2013-09-19 18:23:00,
2013-09-19 14:28:00,84.1,64.0,30.10,SW,226,2.0,2.0,51,0.00,,FEW040,0.00,VWS V14.01,2013-09-19 18:28:00,
2013-09-19 14:33:00,84.6,64.5,30.10,SW,229,0.0,1.0,51,0.00,,FEW040,0.00,VWS V14.01,2013-09-19 18:33:00,
2013-09-19 14:38:00,84.9,64.2,30.10,ESE,104,0.0,1.0,50,0.00,,FEW040,0.00,VWS V14.01,2013-09-19 18:38:00,
2013-09-19 14:43:00,85.0,64.3,30.10,NW,312,1.0,2.0,50,0.00,,FEW040,0.00,VWS V14.01,2013-09-19 18:43:00,
2013-09-19 14:48:00,85.0,64.3,30.09,SW,222,2.0,3.0,50,0.00,,FEW040,0.00,VWS V14.01,2013-09-19 18:48:00,
2013-09-19 14:53:00,85.3,64.6,30.09,SSW,203,0.0,1.0,50,0.00,,FEW040,0.00,VWS V14.01,2013-09-19 18:53:00,
2013-09-19 14:58:00,86.1,64.7,30.09,SW,224,1.0,3.0,49,0.00,,FEW040,0.00,VWS V14.01,2013-09-19 18:58:00,
2013-09-19 15:03:00,85.5,64.2,30.09,WSW,238,1.0,1.0,49,0.00,,FEW050,0.00,VWS V14.01,2013-09-19 19:03:00,
2013-09-19 15:08:00,85.5,63.6,30.09,SW,224,0.0,3.0,48,0.00,,FEW050,0.00,VWS V14.01,2013-09-19 19:08:00,
2013-09-19 15:13:00,86.1,65.3,30.08,SW,226,0.0,1.0,50,0.00,,FEW050,0.00,VWS V14.01,2013-09-19 19:13:00,
2013-09-19 15:18:00,85.9,62.7,30.08,South,190,1.0,3.0,46,0.00,,FEW050,0.00,VWS V14.01,2013-09-19 19:18:00,
2013-09-19 15:23:00,86.0,64.0,30.08,SSW,198,0.0,3.0,48,0.00,,FEW050,0.00,VWS V14.01,2013-09-19 19:23:00,
2013-09-19 15:28:00,86.5,64.5,30.08,SSW,207,0.0,3.0,48,0.00,,FEW050,0.00,VWS V14.01,2013-09-19 19:28:00,
2013-09-19 15:33:00,86.3,65.5,30.08,SW,219,0.0,1.0,50,0.00,,FEW050,0.00,VWS V14.01,2013-09-19 19:33:00,
2013-09-19 15:38:00,86.5,65.7,30.07,SW,228,0.0,2.0,50,0.00,,FEW050,0.00,VWS V14.01,2013-09-19 19:38:00,
2013-09-19 15:43:00,86.3,64.9,30.07,SSW,205,0.0,3.0,49,0.00,,FEW050,0.00,VWS V14.01,2013-09-19 19:43:00,
2013-09-19 15:48:00,85.7,64.4,30.07,West,269,1.0,1.0,49,0.00,,FEW050,0.00,VWS V14.01,2013-09-19 19:48:00,
2013-09-19 15:53:00,85.5,64.2,30.07,NNW,335,0.0,2.0,49,0.00,,FEW050,0.00,VWS V14.01,2013-09-19 19:53:00,
2013-09-19 15:58:00,85.8,63.9,30.07,SW,232,1.0,2.0,48,0.00,,FEW050,0.00,VWS V14.01,2013-09-19 19:58:00,
2013-09-19 16:03:00,85.2,64.5,30.06,West,280,0.0,1.0,50,0.00,,SCT050,0.00,VWS V14.01,2013-09-19 20:03:00,
2013-09-19 16:08:00,85.8,65.0,30.06,SSE,167,3.0,3.0,50,0.00,,SCT050,0.00,VWS V14.01,2013-09-19 20:08:00,
2013-09-19 16:13:00,86.1,64.1,30.06,WSW,253,1.0,2.0,48,0.00,,SCT050,0.00,VWS V14.01,2013-09-19 20:13:00,
2013-09-19 16:18:00,86.0,65.2,30.06,West,260,0.0,1.0,50,0.00,,SCT050,0.00,VWS V14.01,2013-09-19 20:18:00,
2013-09-19 16:23:00,86.2,63.6,30.06,ENE,72,1.0,1.0,47,0.00,,SCT050,0.00,VWS V14.01,2013-09-19 20:23:00,
2013-09-19 16:28:00,86.3,64.3,30.06,SSW,197,1.0,2.0,48,0.00,,SCT050,0.00,VWS V14.01,2013-09-19 20:28:00,
2013-09-19 16:33:00,86.2,65.4,30.06,SSE,163,1.0,2.0,50,0.00,,SCT050,0.00,VWS V14.01,2013-09-19 20:33:00,
2013-09-19 16:38:00,86.4,66.2,30.06,SW,226,0.0,0.0,51,0.00,,SCT050,0.00,VWS V14.01,2013-09-19 20:38:00,
2013-09-19 16:43:00,86.7,64.7,30.06,SSE,159,2.0,2.0,48,0.00,,SCT050,0.00,VWS V14.01,2013-09-19 20:43:00,
2013-09-19 16:48:00,86.5,63.9,30.06,SSW,211,0.0,0.0,47,0.00,,SCT050,0.00,VWS V14.01,2013-09-19 20:48:00,
2013-09-19 16:53:00,86.0,62.8,30.06,NE,53,0.0,2.0,46,0.00,,SCT050,0.00,VWS V14.01,2013-09-19 20:53:00,
2013-09-19 16:58:00,85.2,64.5,30.06,East,91,0.0,1.0,50,0.00,,SCT050,0.00,VWS V14.01,2013-09-19 20:58:00,
2013-09-19 17:04:00,85.6,63.1,30.06,West,275,1.0,2.0,47,0.00,,FEW050,0.00,VWS V14.01,2013-09-19 21:04:00,
2013-09-19 17:09:00,85.7,66.6,30.06,SW,224,0.0,1.0,53,0.00,,FEW050,0.00,VWS V14.01,2013-09-19 21:09:00,
2013-09-19 17:14:00,86.0,63.4,30.06,SSW,196,0.0,2.0,47,0.00,,FEW050,0.00,VWS V14.01,2013-09-19 21:14:00,
2013-09-19 17:19:00,86.0,65.2,30.05,SW,222,1.0,2.0,50,0.00,,FEW050,0.00,VWS V14.01,2013-09-19 21:19:00,
2013-09-19 17:24:00,84.9,63.0,30.05,SW,226,1.0,3.0,48,0.00,,FEW050,0.00,VWS V14.01,2013-09-19 21:24:00,
2013-09-19 17:29:00,84.0,63.4,30.05,SW,218,0.0,3.0,50,0.00,,FEW050,0.00,VWS V14.01,2013-09-19 21:29:00,
2013-09-19 17:34:00,83.7,63.7,30.05,SW,218,0.0,2.0,51,0.00,,FEW050,0.00,VWS V14.01,2013-09-19 21:34:00,
2013-09-19 17:39:00,83.7,64.2,30.05,SW,218,0.0,0.0,52,0.00,,FEW050,0.00,VWS V14.01,2013-09-19 21:39:00,
2013-09-19 17:44:00,83.6,65.7,30.05,SW,219,0.0,0.0,55,0.00,,FEW050,0.00,VWS V14.01,2013-09-19 21:44:00,
2013-09-19 17:49:00,83.0,64.1,30.05,South,184,0.0,0.0,53,0.00,,FEW050,0.00,VWS V14.01,2013-09-19 21:49:00,
2013-09-19 17:54:00,82.4,64.6,30.05,SW,219,0.0,1.0,55,0.00,,FEW050,0.00,VWS V14.01,2013-09-19 21:54:00,
2013-09-19 17:59:00,82.0,63.2,30.05,SW,221,0.0,2.0,53,0.00,,FEW050,0.00,VWS V14.01,2013-09-19 21:59:00,
2013-09-19 18:04:00,81.8,66.6,30.05,WSW,252,0.0,0.0,60,0.00,,FEW060,0.00,VWS V14.01,2013-09-19 22:04:00,
2013-09-19 18:09:00,81.5,64.8,30.05,SSW,208,0.0,0.0,57,0.00,,FEW060,0.00,VWS V14.01,2013-09-19 22:09:00,
2013-09-19 18:14:00,81.3,64.1,30.05,SW,231,0.0,1.0,56,0.00,,FEW060,0.00,VWS V14.01,2013-09-19 22:14:00,
2013-09-19 18:19:00,81.1,63.9,30.05,SW,231,0.0,1.0,56,0.00,,FEW060,0.00,VWS V14.01,2013-09-19 22:19:00,
2013-09-19 18:24:00,80.9,64.8,30.05,SW,233,0.0,0.0,58,0.00,,FEW060,0.00,VWS V14.01,2013-09-19 22:24:00,
2013-09-19 18:29:00,80.7,65.5,30.05,SW,233,0.0,0.0,60,0.00,,FEW060,0.00,VWS V14.01,2013-09-19 22:29:00,
2013-09-19 18:34:00,80.4,63.8,30.05,SW,233,0.0,0.0,57,0.00,,FEW060,0.00,VWS V14.01,2013-09-19 22:34:00,
2013-09-19 18:39:00,80.3,64.7,30.05,SW,233,0.0,0.0,59,0.00,,FEW060,0.00,VWS V14.01,2013-09-19 22:39:00,
2013-09-19 18:44:00,80.2,65.5,30.05,SW,233,0.0,0.0,61,0.00,,FEW060,0.00,VWS V14.01,2013-09-19 22:44:00,
2013-09-19 18:49:00,79.9,65.3,30.05,SW,233,0.0,0.0,61,0.00,,FEW060,0.00,VWS V14.01,2013-09-19 22:49:00,
2013-09-19 18:54:00,79.6,65.4,30.05,SW,233,0.0,0.0,62,0.00,,FEW060,0.00,VWS V14.01,2013-09-19 22:54:00,
2013-09-19 18:59:00,79.2,66.0,30.05,SW,233,0.0,0.0,64,0.00,,FEW060,0.00,VWS V14.01,2013-09-19 22:59:00,
2013-09-19 19:04:00,78.7,66.0,30.05,SW,233,0.0,0.0,65,0.00,,FEW049,0.00,VWS V14.01,2013-09-19 23:04:00,
2013-09-19 19:09:00,78.2,65.5,30.05,SW,233,0.0,0.0,65,0.00,,FEW049,0.00,VWS V14.01,2013-09-19 23:09:00,
2013-09-19 19:14:00,77.7,65.4,30.05,SW,233,0.0,0.0,66,0.00,,FEW049,0.00,VWS V14.01,2013-09-19 23:14:00,
2013-09-19 19:19:00,77.1,65.7,30.05,SW,233,0.0,0.0,68,0.00,,FEW049,0.00,VWS V14.01,2013-09-19 23:19:00,
2013-09-19 19:24:00,76.3,65.8,30.05,SW,233,0.0,0.0,70,0.00,,FEW049,0.00,VWS V14.01,2013-09-19 23:24:00,
2013-09-19 19:29:00,75.8,65.7,30.05,SW,233,0.0,0.0,71,0.00,,FEW049,0.00,VWS V14.01,2013-09-19 23:29:00,
2013-09-19 19:34:00,75.3,65.7,30.05,SW,233,0.0,0.0,72,0.00,,FEW049,0.00,VWS V14.01,2013-09-19 23:34:00,
2013-09-19 19:39:00,74.8,65.2,30.05,SW,233,0.0,0.0,72,0.00,,FEW049,0.00,VWS V14.01,2013-09-19 23:39:00,
2013-09-19 19:44:00,74.4,65.2,30.05,SW,233,0.0,0.0,73,0.00,,FEW049,0.00,VWS V14.01,2013-09-19 23:44:00,
2013-09-19 19:49:00,74.0,65.2,30.05,SW,233,0.0,0.0,74,0.00,,FEW049,0.00,VWS V14.01,2013-09-19 23:49:00,
2013-09-19 19:54:00,73.5,65.1,30.05,SW,233,0.0,0.0,75,0.00,,FEW049,0.00,VWS V14.01,2013-09-19 23:54:00,
2013-09-19 19:59:00,73.1,65.1,30.05,SW,233,0.0,0.0,76,0.00,,FEW049,0.00,VWS V14.01,2013-09-19 23:59:00,
2013-09-19 20:04:00,72.8,64.8,30.05,SW,233,0.0,0.0,76,0.00,,SCT049,0.00,VWS V14.01,2013-09-20 00:04:00,
2013-09-19 20:09:00,72.5,64.9,30.05,SW,233,0.0,0.0,77,0.00,,SCT049,0.00,VWS V14.01,2013-09-20 00:09:00,
2013-09-19 20:14:00,72.2,64.6,30.05,SW,233,0.0,0.0,77,0.00,,SCT049,0.00,VWS V14.01,2013-09-20 00:14:00,
2013-09-19 20:19:00,71.9,64.7,30.05,SW,233,0.0,0.0,78,0.00,,SCT049,0.00,VWS V14.01,2013-09-20 00:19:00,
2013-09-19 20:24:00,71.5,64.7,30.05,SW,233,0.0,0.0,79,0.00,,SCT049,0.00,VWS V14.01,2013-09-20 00:24:00,
2013-09-19 20:29:00,71.1,64.6,30.05,SW,233,0.0,0.0,80,0.00,,SCT049,0.00,VWS V14.01,2013-09-20 00:29:00,
2013-09-19 20:34:00,70.8,65.0,30.05,SW,233,0.0,0.0,82,0.00,,SCT049,0.00,VWS V14.01,2013-09-20 00:34:00,
2013-09-19 20:39:00,70.6,65.2,30.05,SW,233,0.0,0.0,83,0.00,,SCT049,0.00,VWS V14.01,2013-09-20 00:39:00,
2013-09-19 20:44:00,70.3,65.2,30.05,SW,233,0.0,0.0,84,0.00,,SCT049,0.00,VWS V14.01,2013-09-20 00:44:00,
2013-09-19 20:49:00,70.0,64.9,30.05,SW,233,0.0,0.0,84,0.00,,SCT049,0.00,VWS V14.01,2013-09-20 00:49:00,
2013-09-19 20:54:00,69.9,65.2,30.05,SW,233,0.0,0.0,85,0.00,,SCT049,0.00,VWS V14.01,2013-09-20 00:54:00,
2013-09-19 20:59:00,69.7,65.0,30.05,SW,233,0.0,0.0,85,0.00,,SCT049,0.00,VWS V14.01,2013-09-20 00:59:00,
2013-09-19 21:04:00,69.5,64.8,30.05,SW,233,0.0,0.0,85,0.00,,SKC,0.00,VWS V14.01,2013-09-20 01:04:00,
2013-09-19 21:09:00,69.5,64.8,30.05,SW,233,0.0,0.0,85,0.00,,SKC,0.00,VWS V14.01,2013-09-20 01:09:00,
2013-09-19 21:14:00,69.4,64.7,30.05,SW,233,0.0,0.0,85,0.00,,SKC,0.00,VWS V14.01,2013-09-20 01:14:00,
2013-09-19 21:19:00,69.3,64.6,30.05,SW,233,0.0,0.0,85,0.00,,SKC,0.00,VWS V14.01,2013-09-20 01:19:00,
2013-09-19 21:24:00,69.2,64.8,30.05,SW,233,0.0,0.0,86,0.00,,SKC,0.00,VWS V14.01,2013-09-20 01:24:00,
2013-09-19 21:29:00,69.0,64.6,30.05,SW,233,0.0,0.0,86,0.00,,SKC,0.00,VWS V14.01,2013-09-20 01:29:00,
2013-09-19 21:34:00,68.8,64.8,30.05,SW,233,0.0,0.0,87,0.00,,SKC,0.00,VWS V14.01,2013-09-20 01:34:00,
2013-09-19 21:39:00,68.6,64.6,30.05,SW,233,0.0,0.0,87,0.00,,SKC,0.00,VWS V14.01,2013-09-20 01:39:00,
2013-09-19 21:44:00,68.5,64.8,30.05,SW,233,0.0,0.0,88,0.00,,SKC,0.00,VWS V14.01,2013-09-20 01:44:00,
2013-09-19 21:49:00,68.4,64.7,30.05,SW,233,0.0,0.0,88,0.00,,SKC,0.00,VWS V14.01,2013-09-20 01:49:00,
2013-09-19 21:54:00,68.2,64.5,30.06,SW,233,0.0,0.0,88,0.00,,SKC,0.00,VWS V14.01,2013-09-20 01:54:00,
2013-09-19 21:59:00,68.1,64.7,30.05,SW,233,0.0,0.0,89,0.00,,SKC,0.00,VWS V14.01,2013-09-20 01:59:00,
2013-09-19 22:04:00,67.9,64.5,30.05,SW,233,0.0,0.0,89,0.00,,SKC,0.00,VWS V14.01,2013-09-20 02:04:00,
2013-09-19 22:09:00,67.7,64.3,30.05,SW,233,0.0,0.0,89,0.00,,SKC,0.00,VWS V14.01,2013-09-20 02:09:00,
2013-09-19 22:14:00,67.5,64.2,30.05,SW,233,0.0,0.0,89,0.00,,SKC,0.00,VWS V14.01,2013-09-20 02:14:00,
2013-09-19 22:19:00,67.3,64.3,30.06,SW,233,0.0,0.0,90,0.00,,SKC,0.00,VWS V14.01,2013-09-20 02:19:00,
2013-09-19 22:24:00,67.1,63.8,30.06,SW,233,0.0,0.0,89,0.00,,SKC,0.00,VWS V14.01,2013-09-20 02:24:00,
2013-09-19 22:29:00,66.8,63.8,30.06,SW,233,0.0,0.0,90,0.00,,SKC,0.00,VWS V14.01,2013-09-20 02:29:00,
2013-09-19 22:34:00,66.7,64.0,30.06,SW,233,0.0,0.0,91,0.00,,SKC,0.00,VWS V14.01,2013-09-20 02:34:00,
2013-09-19 22:39:00,66.7,64.0,30.06,SW,233,0.0,0.0,91,0.00,,SKC,0.00,VWS V14.01,2013-09-20 02:39:00,
2013-09-19 22:44:00,66.5,64.1,30.06,SW,233,0.0,0.0,92,0.00,,SKC,0.00,VWS V14.01,2013-09-20 02:44:00,
2013-09-19 22:49:00,66.4,64.0,30.06,SW,233,0.0,0.0,92,0.00,,SKC,0.00,VWS V14.01,2013-09-20 02:49:00,
2013-09-19 22:54:00,66.3,63.9,30.06,SW,233,0.0,0.0,92,0.00,,SKC,0.00,VWS V14.01,2013-09-20 02:54:00,
2013-09-19 22:59:00,66.2,64.1,30.06,SW,233,0.0,0.0,93,0.00,,SKC,0.00,VWS V14.01,2013-09-20 02:59:00,
2013-09-19 23:04:00,66.2,64.1,30.06,SW,233,0.0,0.0,93,0.00,,SKC,0.00,VWS V14.01,2013-09-20 03:04:00,
2013-09-19 23:09:00,66.1,64.0,30.06,SW,233,0.0,0.0,93,0.00,,SKC,0.00,VWS V14.01,2013-09-20 03:09:00,
2013-09-19 23:14:00,66.0,63.9,30.06,SW,233,0.0,0.0,93,0.00,,SKC,0.00,VWS V14.01,2013-09-20 03:14:00,
2013-09-19 23:19:00,65.9,63.8,30.06,SW,233,0.0,0.0,93,0.00,,SKC,0.00,VWS V14.01,2013-09-20 03:19:00,
2013-09-19 23:24:00,65.8,63.7,30.06,SW,233,0.0,0.0,93,0.00,,SKC,0.00,VWS V14.01,2013-09-20 03:24:00,
2013-09-19 23:29:00,65.6,63.5,30.06,SW,233,0.0,0.0,93,0.00,,SKC,0.00,VWS V14.01,2013-09-20 03:29:00,
2013-09-19 23:34:00,65.5,63.7,30.06,SW,233,0.0,0.0,94,0.00,,SKC,0.00,VWS V14.01,2013-09-20 03:34:00,
2013-09-19 23:39:00,65.4,63.6,30.06,SW,233,0.0,0.0,94,0.00,,SKC,0.00,VWS V14.01,2013-09-20 03:39:00,
2013-09-19 23:44:00,65.3,63.5,30.06,SW,233,0.0,0.0,94,0.00,,SKC,0.00,VWS V14.01,2013-09-20 03:44:00,
2013-09-19 23:49:00,65.4,63.6,30.06,SW,233,0.0,0.0,94,0.00,,SKC,0.00,VWS V14.01,2013-09-20 03:49:00,
2013-09-19 23:54:00,65.3,63.5,30.06,SW,233,0.0,0.0,94,0.00,,SKC,0.00,VWS V14.01,2013-09-20 03:54:00,
2013-09-19 23:59:00,65.2,63.4,30.06,SW,233,0.0,0.0,94,0.00,,SKC,0.00,VWS V14.01,2013-09-20 03:59:00,